timestamp,wind_dir_avg,wind_spd_avg,wind_spd_max_dir,wind_spd_gust,battery_voltage,lat,long
2021-08-06 00:04:01+00:00,204.0,7.04,204.0,7.96,12.89,47.59359,-54.27349
2021-08-06 00:14:01+00:00,210.0,7.81,211.0,8.48,12.65,47.59359,-54.27349
2021-08-06 00:24:01+00:00,205.0,7.45,207.0,8.88,12.65,47.59359,-54.27349
2021-08-06 00:34:01+00:00,209.0,7.51,213.0,8.81,12.65,47.59359,-54.27349
2021-08-06 00:44:01+00:00,206.0,7.93,209.0,8.83,12.65,47.59359,-54.27349
2021-08-06 00:54:01+00:00,204.0,7.46,209.0,8.67,12.65,47.59359,-54.27349
2021-08-06 01:04:01+00:00,202.0,6.92,201.0,7.86,12.65,47.59359,-54.27349
2021-08-06 01:14:00+00:00,206.0,7.3,206.0,8.66,12.65,47.59359,-54.27349
2021-08-06 01:24:00+00:00,200.0,7.68,200.0,8.69,12.65,47.59359,-54.27349
2021-08-06 01:34:00+00:00,200.0,7.92,202.0,8.91,12.65,47.59359,-54.27349
2021-08-06 01:44:00+00:00,190.0,6.17,190.0,7.1,12.65,47.59359,-54.27349
2021-08-06 01:54:00+00:00,193.0,7.25,191.0,8.09,12.65,47.59359,-54.27349
2021-08-06 02:04:00+00:00,203.0,7.17,202.0,8.22,12.65,47.59359,-54.27349
2021-08-06 02:14:00+00:00,203.0,7.27,205.0,8.34,12.65,47.59359,-54.27349
2021-08-06 02:24:00+00:00,209.0,8.45,205.0,9.44,12.65,47.59359,-54.27349
2021-08-06 02:34:00+00:00,206.0,7.17,207.0,8.23,12.65,47.59359,-54.27349
2021-08-06 02:44:00+00:00,207.0,8.49,207.0,9.56,12.65,47.59359,-54.27349
2021-08-06 02:54:00+00:00,209.0,8.75,211.0,9.83,12.65,47.59359,-54.27349
2021-08-06 03:04:00+00:00,209.0,9.46,217.0,11.17,12.65,47.59359,-54.27349
2021-08-06 03:14:00+00:00,210.0,8.72,209.0,10.15,12.65,47.59359,-54.27349
2021-08-06 03:24:00+00:00,208.0,9.29,208.0,10.03,12.65,47.59359,-54.27349
2021-08-06 03:34:00+00:00,211.0,8.89,212.0,9.91,12.65,47.59359,-54.27349
2021-08-06 03:44:00+00:00,212.0,8.73,210.0,9.95,12.65,47.59359,-54.27349
2021-08-06 03:54:00+00:00,211.0,9.16,212.0,10.39,12.65,47.59359,-54.27349
2021-08-06 04:04:00+00:00,212.0,9.27,207.0,10.49,12.65,47.59359,-54.27349
2021-08-06 04:14:00+00:00,210.0,8.79,215.0,10.39,12.57,47.59359,-54.27349
2021-08-06 04:24:00+00:00,203.0,9.58,199.0,10.6,12.57,47.59359,-54.27349
2021-08-06 04:34:00+00:00,208.0,8.87,210.0,9.94,12.57,47.59359,-54.27349
2021-08-06 04:44:00+00:00,212.0,8.28,212.0,8.85,12.57,47.59359,-54.27349
2021-08-06 04:54:00+00:00,211.0,8.37,209.0,9.71,12.57,47.59359,-54.27349
2021-08-06 05:04:00+00:00,211.0,8.72,223.0,10.76,12.57,47.59359,-54.27349
2021-08-06 05:14:00+00:00,213.0,7.76,207.0,9.24,12.57,47.59359,-54.27349
2021-08-06 05:24:00+00:00,208.0,7.56,228.0,9.63,12.57,47.59359,-54.27349
2021-08-06 05:34:00+00:00,205.0,8.17,226.0,10.08,12.57,47.59359,-54.27349
2021-08-06 05:44:00+00:00,207.0,8.1,211.0,9.18,12.57,47.59359,-54.27349
2021-08-06 05:54:00+00:00,203.0,8.61,205.0,9.83,12.57,47.59359,-54.27349
2021-08-06 06:04:00+00:00,210.0,7.71,208.0,8.8,12.57,47.59359,-54.27349
2021-08-06 06:14:00+00:00,214.0,6.75,216.0,7.95,12.57,47.59359,-54.27349
2021-08-06 06:24:00+00:00,220.0,5.9,217.0,6.61,12.57,47.59359,-54.27349
2021-08-06 06:34:00+00:00,225.0,5.56,227.0,6.54,12.57,47.59359,-54.27349
2021-08-06 06:44:00+00:00,219.0,5.65,242.0,7.44,12.57,47.59359,-54.27349
2021-08-06 06:54:00+00:00,214.0,6.93,210.0,7.79,12.57,47.59359,-54.27349
2021-08-06 07:04:00+00:00,210.0,8.04,209.0,8.95,12.57,47.59359,-54.27349
2021-08-06 07:14:01+00:00,202.0,8.24,211.0,9.45,12.49,47.59359,-54.27349
2021-08-06 07:24:01+00:00,201.0,7.82,218.0,9.31,12.49,47.59359,-54.27349
2021-08-06 07:34:01+00:00,210.0,7.61,210.0,8.85,12.49,47.59359,-54.27349
2021-08-06 07:44:01+00:00,206.0,7.88,211.0,9.01,12.49,47.59359,-54.27349
2021-08-06 07:54:01+00:00,206.0,8.33,211.0,9.34,12.49,47.59359,-54.27349
2021-08-06 08:04:01+00:00,211.0,7.88,213.0,8.66,12.49,47.59359,-54.27349
2021-08-06 08:14:01+00:00,212.0,7.78,212.0,8.88,12.49,47.59359,-54.27349
2021-08-06 08:24:01+00:00,209.0,8.14,209.0,9.43,12.49,47.59359,-54.27349
2021-08-06 08:34:01+00:00,213.0,7.43,215.0,8.33,12.49,47.59359,-54.27349
2021-08-06 08:44:01+00:00,211.0,7.45,211.0,8.54,12.49,47.59359,-54.27349
2021-08-06 08:54:01+00:00,213.0,7.36,216.0,8.19,12.49,47.59359,-54.27349
2021-08-06 09:04:01+00:00,210.0,7.73,226.0,8.74,12.49,47.59359,-54.27349
2021-08-06 09:14:01+00:00,210.0,7.36,212.0,8.63,12.41,47.59359,-54.27349
2021-08-06 09:24:01+00:00,209.0,7.09,210.0,8.05,12.41,47.59359,-54.27349
2021-08-06 09:34:01+00:00,207.0,7.93,208.0,8.73,12.41,47.59359,-54.27349
2021-08-06 09:44:01+00:00,205.0,7.84,210.0,8.56,12.41,47.59359,-54.27349
2021-08-06 09:54:01+00:00,206.0,7.47,212.0,8.36,12.41,47.59359,-54.27349
2021-08-06 10:04:01+00:00,207.0,7.61,210.0,8.27,12.41,47.59359,-54.27349
2021-08-06 10:14:01+00:00,208.0,7.87,212.0,8.76,12.73,47.59359,-54.27349
2021-08-06 10:24:01+00:00,206.0,7.86,202.0,8.73,12.73,47.59359,-54.27349
2021-08-06 10:34:01+00:00,206.0,8.3,208.0,8.91,12.73,47.59359,-54.27349
2021-08-06 10:44:01+00:00,204.0,8.73,207.0,9.43,12.73,47.59359,-54.27349
2021-08-06 10:54:01+00:00,203.0,8.35,204.0,9.12,12.73,47.59359,-54.27349
2021-08-06 11:04:01+00:00,205.0,8.11,208.0,8.72,12.73,47.59359,-54.27349
2021-08-06 11:14:01+00:00,207.0,8.57,208.0,9.5,13.44,47.59359,-54.27349
2021-08-06 11:24:01+00:00,204.0,8.75,205.0,9.89,13.44,47.59359,-54.27349
2021-08-06 11:34:01+00:00,203.0,8.49,203.0,9.6,13.44,47.59359,-54.27349
2021-08-06 11:44:01+00:00,203.0,9.03,207.0,10.15,13.44,47.59359,-54.27349
2021-08-06 11:54:01+00:00,201.0,10.27,200.0,11.95,13.44,47.59359,-54.27349
2021-08-06 12:04:01+00:00,203.0,9.99,204.0,10.7,13.44,47.59359,-54.27349
2021-08-06 12:14:01+00:00,203.0,10.87,204.0,11.76,13.84,47.59359,-54.27349
2021-08-06 12:24:01+00:00,206.0,9.91,204.0,10.94,13.84,47.59359,-54.27349
2021-08-06 12:34:01+00:00,202.0,10.04,203.0,10.83,13.84,47.59359,-54.27349
2021-08-06 12:44:01+00:00,204.0,10.42,206.0,11.58,13.84,47.59359,-54.27349
2021-08-06 12:54:01+00:00,206.0,10.02,205.0,11.57,13.84,47.59359,-54.27349
2021-08-06 13:04:01+00:00,207.0,10.0,206.0,11.24,13.84,47.59359,-54.27349
2021-08-06 13:14:01+00:00,204.0,10.25,199.0,11.91,14.08,47.59359,-54.27349
2021-08-06 13:24:01+00:00,202.0,10.24,202.0,11.57,14.08,47.59359,-54.27349
2021-08-06 13:34:01+00:00,198.0,10.29,196.0,11.48,14.08,47.59359,-54.27349
2021-08-06 13:44:01+00:00,198.0,10.23,198.0,11.96,14.08,47.59359,-54.27349
2021-08-06 13:54:01+00:00,198.0,9.31,199.0,10.17,14.08,47.59359,-54.27349
2021-08-06 14:04:01+00:00,201.0,9.86,198.0,10.98,14.08,47.59359,-54.27349
2021-08-06 14:14:01+00:00,199.0,10.47,205.0,11.66,14.08,47.59359,-54.27349
2021-08-06 14:24:01+00:00,197.0,9.83,202.0,11.3,14.08,47.59359,-54.27349
2021-08-06 14:34:01+00:00,201.0,10.16,205.0,11.27,14.08,47.59359,-54.27349
2021-08-06 14:44:01+00:00,201.0,11.66,201.0,12.83,14.08,47.59359,-54.27349
2021-08-06 14:54:01+00:00,203.0,11.74,200.0,13.27,14.08,47.59359,-54.27349
2021-08-06 15:04:01+00:00,202.0,11.5,202.0,12.62,14.08,47.59359,-54.27349
2021-08-06 15:14:01+00:00,201.0,11.71,201.0,12.68,14.24,47.59359,-54.27349
2021-08-06 15:24:01+00:00,203.0,11.8,201.0,13.28,14.24,47.59359,-54.27349
2021-08-06 15:34:01+00:00,201.0,12.28,203.0,13.41,14.24,47.59359,-54.27349
2021-08-06 15:44:01+00:00,203.0,11.5,199.0,12.85,14.24,47.59359,-54.27349
2021-08-06 15:54:01+00:00,204.0,11.3,201.0,12.47,14.24,47.59359,-54.27349
2021-08-06 16:04:01+00:00,203.0,11.46,199.0,13.3,14.24,47.59359,-54.27349
2021-08-06 16:14:01+00:00,204.0,11.08,200.0,12.71,14.32,47.59359,-54.27349
2021-08-06 16:24:01+00:00,203.0,11.36,202.0,13.18,14.32,47.59359,-54.27349
2021-08-06 16:34:01+00:00,202.0,11.35,202.0,12.77,14.32,47.59359,-54.27349
2021-08-06 16:44:01+00:00,202.0,10.97,200.0,12.53,14.32,47.59359,-54.27349
2021-08-06 16:54:01+00:00,203.0,10.94,201.0,12.63,14.32,47.59359,-54.27349
2021-08-06 17:04:01+00:00,206.0,10.35,210.0,11.45,14.32,47.59359,-54.27349
2021-08-06 17:14:01+00:00,202.0,10.37,204.0,11.56,13.68,47.59359,-54.27349
2021-08-06 17:24:01+00:00,202.0,10.3,201.0,11.65,13.68,47.59359,-54.27349
2021-08-06 17:34:01+00:00,204.0,10.52,203.0,11.61,13.68,47.59359,-54.27349
2021-08-06 17:44:01+00:00,202.0,10.68,200.0,11.83,13.68,47.59359,-54.27349
2021-08-06 17:54:01+00:00,201.0,10.87,198.0,12.1,13.68,47.59359,-54.27349
2021-08-06 18:04:01+00:00,199.0,10.97,195.0,12.5,13.68,47.59359,-54.27349
2021-08-06 18:14:01+00:00,201.0,10.67,199.0,12.01,14.08,47.59359,-54.27349
2021-08-06 18:24:01+00:00,198.0,11.34,197.0,12.79,14.08,47.59359,-54.27349
2021-08-06 18:34:01+00:00,202.0,11.39,200.0,13.05,14.08,47.59359,-54.27349
2021-08-06 18:44:01+00:00,200.0,11.7,197.0,15.27,14.08,47.59359,-54.27349
2021-08-06 18:54:01+00:00,201.0,11.79,202.0,13.88,14.08,47.59359,-54.27349
2021-08-06 19:04:01+00:00,200.0,12.5,197.0,14.04,14.08,47.59359,-54.27349
2021-08-06 19:14:01+00:00,202.0,12.17,203.0,13.6,13.92,47.59359,-54.27349
2021-08-06 19:24:01+00:00,201.0,11.88,201.0,13.3,13.92,47.59359,-54.27349
2021-08-06 19:34:01+00:00,201.0,11.77,202.0,13.18,13.92,47.59359,-54.27349
2021-08-06 19:44:01+00:00,206.0,10.72,209.0,12.04,13.92,47.59359,-54.27349
2021-08-06 19:54:01+00:00,205.0,11.49,209.0,12.96,13.92,47.59359,-54.27349
2021-08-06 20:04:01+00:00,206.0,12.34,203.0,13.95,13.92,47.59359,-54.27349
2021-08-06 20:14:01+00:00,204.0,12.17,207.0,14.06,13.76,47.59359,-54.27349
2021-08-06 20:24:01+00:00,200.0,12.48,198.0,13.52,13.76,47.59359,-54.27349
2021-08-06 20:34:01+00:00,198.0,12.23,203.0,13.73,13.76,47.59359,-54.27349
2021-08-06 20:44:01+00:00,194.0,11.85,194.0,13.49,13.76,47.59359,-54.27349
2021-08-06 20:54:01+00:00,196.0,11.69,202.0,13.68,13.76,47.59359,-54.27349
2021-08-06 21:04:01+00:00,196.0,10.93,201.0,12.32,13.76,47.59359,-54.27349
2021-08-06 21:14:01+00:00,193.0,11.1,195.0,12.55,13.6,47.59359,-54.27349
2021-08-06 21:24:01+00:00,201.0,12.42,207.0,14.65,13.6,47.59359,-54.27349
2021-08-06 21:34:01+00:00,199.0,11.49,202.0,13.28,13.6,47.59359,-54.27349
2021-08-06 21:44:01+00:00,200.0,11.93,212.0,14.17,13.6,47.59359,-54.27349
2021-08-06 21:54:01+00:00,196.0,11.46,206.0,13.34,13.6,47.59359,-54.27349
2021-08-06 22:04:01+00:00,201.0,11.01,212.0,12.49,13.6,47.59359,-54.27349
2021-08-06 22:14:01+00:00,199.0,10.67,215.0,13.02,13.37,47.59359,-54.27349
2021-08-06 22:24:01+00:00,206.0,11.32,217.0,13.71,13.37,47.59359,-54.27349
2021-08-06 22:34:01+00:00,196.0,10.59,213.0,12.93,13.37,47.59359,-54.27349
2021-08-06 22:44:01+00:00,195.0,10.58,205.0,12.67,13.37,47.59359,-54.27349
2021-08-06 22:54:01+00:00,197.0,10.73,209.0,12.28,13.37,47.59359,-54.27349
2021-08-06 23:04:01+00:00,195.0,10.41,205.0,12.18,13.37,47.59359,-54.27349
2021-08-06 23:14:01+00:00,194.0,10.48,196.0,11.87,12.89,47.59359,-54.27349
2021-08-06 23:24:01+00:00,202.0,9.35,203.0,10.84,12.89,47.59359,-54.27349
2021-08-06 23:34:01+00:00,201.0,9.5,199.0,10.96,12.89,47.59359,-54.27349
2021-08-06 23:44:01+00:00,198.0,9.15,202.0,10.66,12.89,47.59359,-54.27349
2021-08-06 23:54:01+00:00,195.0,9.65,193.0,11.24,12.89,47.59359,-54.27349
